sat.trackr.live / text

‹ back to catalog

STARLINK-32166

NORAD 60257 · 2024-131C

PAYLOAD ACTIVE UNKNOWN

§ Identity

Operator
Country
US
Launch date
2024-07-27
Launch site
AFETR
Launch vehicle
Mass (kg)
RCS (m²)

Purposes: comms

External: N2YO · Heavens-Above · Gunter

§ Orbital elements

Epoch: 2026-09-21T21:43:19.184160Z

Period
93.85 min
Inclination
53.1604°
Eccentricity
0.0002105
Mean motion
15.34417511 rev/d
Perigee alt
461.2 km
Apogee alt
464.1 km
Semi-major
6,840.8 km
B*
-2.0149e-4
RAAN
219.3628°
Arg perigee
92.6536°
Mean anomaly
267.4707°
Rev number
12,178

§ Raw data

STARLINK-321661 60257U 24131C   26264.90508315 -.00007182  00000+0 -20149-3 0  99902 60257  53.1604 219.3628 0002105  92.6536 267.4707 15.34417511121785

JSON: /api/v1/satellites/60257 · /tle

For live sub-satellite position, see the globe view (requires WebGL).

§ Visibility from observer

Set your observer location to see the next 7 days of passes ≥ 10°. The values pass through the URL so the page stays shareable.

No JS? Fill the form by hand. The geolocation button needs JavaScript.